Location: *
(47.8307°S, 178.3954°E)
Time: 08:45:19
(UTC+00:00)

Lacrosse 4 Rocket - Pass Details

Date: 12 August 2024
Orbit: 520 x 592 km, 68.0° (Epoch: 18 September)

Event Time Altitude Azimuth Distance (km) Brightness Sun altitude
Rises 16:43:43 0° 16° (NNE) 2,784 5.0 -25.5°
Reaches altitude 10° 16:46:46 10° 40° (NE) 1,881 4.4 -25.0°
Maximum altitude 16:49:08 15° 74° (ENE) 1,592 4.5 -24.6°
Drops below altitude 10° 16:51:28 10° 108° (ESE) 1,870 5.0 -24.2°
Sets 16:54:29 0° 131° (SE) 2,758 5.7 -23.7°
